Overview Statistics Trail Chart Weather Telemetry Raw packets
 

This is the latest recevied weather packets stored in our database for station/object 4S6DRJ-13. If no packets are shown the sender has not sent any weather packets the latest 10 day(s).

<< 531 532 533 534 535 536 537 >>
Time Temp. Humidity Pressure Rain* Wind** Luminosity Snow
1787633992 29.44° C 78% 1011.5 hPa 0 mm 0.89 m/s, 303° 248 W/m² -
1787633931 29.44° C 77% 1011.6 hPa 0 mm 0.45 m/s, 289° 485 W/m² -
1787633870 30° C 77% 1011.5 hPa 0 mm 1.34 m/s, 321° 742 W/m² -
1787633809 30° C 76% 1011.7 hPa 0 mm 3.13 m/s, 223° 1116 W/m² -
1787633748 30° C 77% 1011.6 hPa 0 mm 2.24 m/s, 277° 343 W/m² -
1787633687 30° C 77% 1011.5 hPa 0 mm 2.24 m/s, 196° 869 W/m² -
1787633626 30° C 76% 1011.5 hPa 0 mm 2.24 m/s, 181° 1101 W/m² -
1787633565 30° C 76% 1011.5 hPa 0 mm 1.79 m/s, 196° 703 W/m² -
1787633504 30° C 75% 1011.4 hPa 0 mm 1.79 m/s, 248° 420 W/m² -
1787633443 30.56° C 75% 1011.7 hPa 0 mm 1.34 m/s, 229° 588 W/m² -
1787633382 30.56° C 75% 1011.6 hPa 0 mm 1.79 m/s, 125° 708 W/m² -
1787633322 30° C 75% 1011.6 hPa 0 mm 1.34 m/s, 248° 768 W/m² -
1787633260 30° C 75% 1011.3 hPa 0 mm 2.24 m/s, 301° 521 W/m² -
1787633199 30° C 76% 1011.6 hPa 0 mm 0.89 m/s, 253° 1121 W/m² -
1787633138 30° C 75% 1011.6 hPa 0 mm 1.34 m/s, 283° 480 W/m² -
1787633077 30° C 75% 1011.7 hPa 0 mm 2.68 m/s, 235° 505 W/m² -
1787633016 30° C 75% 1011.7 hPa 0 mm 1.79 m/s, 229° 1119 W/m² -
1787632955 30° C 74% 1011.7 hPa 0 mm 1.79 m/s, 121° 581 W/m² -
1787632894 30° C 75% 1011.6 hPa 0 mm 0.89 m/s, 30° 949 W/m² -
1787632833 30° C 75% 1011.7 hPa 0 mm 2.68 m/s, 194° 1121 W/m² -
1787632772 30° C 75% 1011.6 hPa 0 mm 1.79 m/s, 241° 874 W/m² -
1787632711 30° C 76% 1011.7 hPa 0 mm 0.45 m/s, 232° 1119 W/m² -
1787632650 30° C 75% 1011.8 hPa 0 mm 0.89 m/s, 214° 685 W/m² -
1787632589 30° C 75% 1011.9 hPa 0 mm 0.45 m/s, 176° 475 W/m² -
1787632528 30° C 75% 1011.8 hPa 0 mm 0.89 m/s, 306° 540 W/m² -

* Rain latest hour (hover to see other rain measurements)
** Current wind speed in m/s (hover to see current wind gust speed)